If you wish to contribute or participate in the discussions about articles you are invited to join SKYbrary as a registered user

 Actions

Abruzzo Airport

From SKYbrary Wiki

LIBP
Airport
ICAO: LIBP – IATA: PSR
Summary
Name Abruzzo Airport
Region Europe
Territory Italy IT.gif
Location Pescara, Abruzzo
Serving Pescara
Elevation 14.63 m <br />48 ft14.63 m <br />
Coordinates 42° 25' 55.70" N, 14° 11' 9.89" E
Runways
Designator Length Width Surface ROPS
4/22 2418 m7,933.071 ft <br /> 45 m147.638 ft <br /> ASP yes/yes


METAR
Observation LIBP 240750Z AUTO 20005KT 9999 FEW021/// OVC032/// 15/14 Q1027
Station Pescara
Date/Time 24 October 2021 07:50:00
Wind direction 200°
Wind speed 05 kts
Lowest cloud amount few clouds
Temperature 15°C
Dew point 14°C
Humidity 93%
QNH 1027 hPa
Weather condition n/a

Abruzzo Airport (IATA: PSR, ICAO: LIBP) is an international airport serving Pescara, Italy.

Climatology

Humid subtropical climate (Köppen climate classification Cfa)

Maps

Terrain

Loading map...

Airport Layout

Loading map...


Accidents & Serious Incidents at or in vicinity of LIBP

None on SKYbrary